This is the latest recevied weather packets stored in our database for station/object SA3ARQ-13. If no packets are shown the sender has not sent any weather packets the latest 10 day(s).
| Time | Temp. | Humidity | Pressure | Rain* | Wind** | Luminosity | Snow |
|---|---|---|---|---|---|---|---|
| 1777909941 | 17.78° C | 44% | 998.9 hPa | - | - | - | - |
| 1777909041 | 17.78° C | 44% | 998.9 hPa | - | - | - | - |
| 1777908141 | 17.22° C | 44% | 999 hPa | - | - | - | - |
| 1777907241 | 17.22° C | 44% | 999 hPa | - | - | - | - |
| 1777906341 | 17.22° C | 44% | 998.9 hPa | - | - | - | - |
| 1777905441 | 17.22° C | 44% | 998.9 hPa | - | - | - | - |
| 1777904541 | 17.22° C | 43% | 999 hPa | - | - | - | - |
| 1777903641 | 17.22° C | 44% | 999 hPa | - | - | - | - |
| 1777902741 | 16.67° C | 44% | 999 hPa | - | - | - | - |
| 1777901841 | 17.22° C | 45% | 999 hPa | - | - | - | - |
| 1777900941 | 16.67° C | 44% | 998.9 hPa | - | - | - | - |
| 1777900041 | 16.67° C | 46% | 998.9 hPa | - | - | - | - |
| 1777899141 | 16.67° C | 46% | 999.2 hPa | - | - | - | - |
| 1777898241 | 16.11° C | 46% | 999.4 hPa | - | - | - | - |
| 1777897341 | 16.11° C | 46% | 999.3 hPa | - | - | - | - |
| 1777896441 | 16.11° C | 46% | 999.3 hPa | - | - | - | - |
| 1777895541 | 16.11° C | 46% | 999.3 hPa | - | - | - | - |
| 1777894641 | 15.56° C | 46% | 999.3 hPa | - | - | - | - |
| 1777893741 | 15.56° C | 47% | 999.4 hPa | - | - | - | - |
| 1777892841 | 15.56° C | 47% | 999.4 hPa | - | - | - | - |
| 1777891941 | 15° C | 48% | 999.5 hPa | - | - | - | - |
| 1777891041 | 15° C | 47% | 999.7 hPa | - | - | - | - |
| 1777890141 | 15° C | 46% | 999.9 hPa | - | - | - | - |
| 1777889241 | 14.44° C | 46% | 1000.1 hPa | - | - | - | - |
| 1777888341 | 14.44° C | 47% | 1000.3 hPa | - | - | - | - |
* Rain since midnight (hover to see other rain measurements)
** Current wind speed in m/s (hover to see current wind gust speed)